Regional Weather Roundup
Issued by NWS

Home | Current Version | Previous Version | Text Only | Print | Product List | Glossary On
Versions: 1 2 3 4 5 6 7 8 9 10 11 12 13 14 15 16 17 18 19 20 21 22 23 24 25 26 27 28 29 30 31 32 33 34 35 36 37 38 39 40 41 42 43 44 45 46 47 48 49 50
000
ASUS46 KPQR 280610
RWROR

OREGON REGIONAL WEATHER ROUNDUP
NATIONAL WEATHER SERVICE PORTLAND OR
1100 PM PDT WED JUL 27 2016

NOTE: "FAIR" INDICATES FEW OR NO CLOUDS BELOW 12,000 FEET WITH
NO SIGNIFICANT WEATHER AND/OR OBSTRUCTIONS TO VISIBILITY.

ORZ001>013-280700-
NORTHWEST OREGON


CITY           SKY/WX    TMP DP  RH WIND       PRES   REMARKS
ASTORIA        CLOUDY    60  57  89 NW10      30.15R
6HR MIN TEMP:  60; 6HR MAX TEMP:  63;

NEWPORT        CLOUDY    55  54  94 N8        30.15R FOG
PORTLAND       CLEAR     72  59  63 VRB3      30.05R
6HR MIN TEMP:  72; 6HR MAX TEMP:  88;

VANCOUVER WA   CLEAR     72  58  61 NW7       30.04S
6HR MIN TEMP:  72; 6HR MAX TEMP:  88;

SCAPPOOSE      CLEAR     70  58  65 N6        30.04S
6HR MIN TEMP:  66; 6HR MAX TEMP:  88;

HILLSBORO      CLEAR     71  56  58 W9        30.05S
6HR MIN TEMP:  71; 6HR MAX TEMP:  90;

AURORA         CLEAR     73  56  54 N6        30.06R
6HR MIN TEMP:  73; 6HR MAX TEMP:  89;

MCMINNVILLE    CLEAR     68  58  70 W7        30.06R
6HR MIN TEMP:  67; 6HR MAX TEMP:  92;

SALEM          CLEAR     72  57  59 NW3       30.04R
6HR MIN TEMP:  72; 6HR MAX TEMP:  92;

CORVALLIS        N/A     66  57  72 W12       30.07R
EUGENE         CLEAR     70  59  68 NE3       30.05R
6HR MIN TEMP:  69; 6HR MAX TEMP:  91;

$$

ORZ021-028-280700-
SOUTHWEST OREGON


CITY           SKY/WX    TMP DP  RH WIND       PRES   REMARKS
NORTH BEND     CLOUDY    57  57 100 N12       30.11R
6HR MIN TEMP:  57; 6HR MAX TEMP:  64;

BROOKINGS      CLEAR     56  53  90 NW3       29.97R
ROSEBURG       CLEAR     76  58  53 NW3       30.02S
6HR MIN TEMP:  76; 6HR MAX TEMP:  93;

SEXTON SUMMIT  CLEAR     65  47  52 N9G20     30.15S
6HR MIN TEMP:  65; 6HR MAX TEMP:  79;

MEDFORD        CLEAR     78  52  40 NE5       30.01R
6HR MIN TEMP:  78; 6HR MAX TEMP:  99;

$$

ORZ014>016-041-280700-
COLUMBIA GORGE


CITY           SKY/WX    TMP DP  RH WIND       PRES   REMARKS
TROUTDALE      CLEAR     73  61  65 VRB3      30.04R
6HR MIN TEMP:  73; 6HR MAX TEMP:  89;

THE DALLES     CLEAR     80  59  48 W8        29.96S
6HR MIN TEMP:  80; 6HR MAX TEMP:  95;

$$

ORZ029>031-041-044-049-050-061>064-502-503-505>511-280700-
EASTERN OREGON


CITY           SKY/WX    TMP DP  RH WIND       PRES   REMARKS
REDMOND        CLEAR     75  39  27 NW8       30.11R
6HR MIN TEMP:  75; 6HR MAX TEMP:  93;

BEND           CLEAR     73  41  31 CALM      30.14R
PRINEVILLE     CLEAR     70  39  32 CALM      30.12R
KLAMATH FALLS  CLEAR     75  56  51 NW7       30.12R
6HR MIN TEMP:  74; 6HR MAX TEMP:  95;

LAKEVIEW       CLEAR    N/A N/A N/A N12       30.17S
HERMISTON      CLEAR     75  57  53 SW5       29.94R
6HR MIN TEMP:  75; 6HR MAX TEMP:  99;

PENDLETON      CLEAR     72  49  44 E7        30.00R
6HR MIN TEMP:  72; 6HR MAX TEMP:  95;

JOHN DAY       CLEAR     75  46  35 NW6       30.14R
MEACHAM        CLEAR     57  48  72 CALM      30.17R
6HR MIN TEMP:  57; 6HR MAX TEMP:  85;

LA GRANDE      CLEAR     68  41  37 N9        30.08R
6HR MIN TEMP:  68; 6HR MAX TEMP:  93;

BAKER CITY     CLEAR     66  48  52 W8        30.12R
6HR MIN TEMP:  65; 6HR MAX TEMP:  92;

BURNS          CLEAR     78  37  22 N8G17     30.13R
6HR MIN TEMP:  72; 6HR MAX TEMP:  96;

ROME             N/A     77  35  21 N6        30.06R
6HR MIN TEMP:  77; 6HR MAX TEMP: 103;

ONTARIO        CLEAR     85  43  22 NE6       29.96R
6HR MIN TEMP:  84; 6HR MAX TEMP: 102;

$$



USA.gov is the U.S. government's official web portal to all federal, state and local government web resources and services.